Weather History for Jacksonville, FL

Change the Weather History Date:

Wednesday, June 26, 2013

  Actual Average Record
Temperature  
Mean Temperature 81 °F 81 °F  
Max Temperature 92 °F 91 °F 101 °F (1952)
Min Temperature 70 °F 72 °F 63 °F (1966)
Degree Days  
Heating Degree Days 0 0  
Month to date heating degree days 0 0  
Since 1 June heating degree days 0 0  
Since 1 July heating degree days 1243 1349  
Cooling Degree Days 16 16  
Month to date cooling degree days 407 383  
Year to date cooling degree days 843 867  
Since 1 June cooling degree days 407 383  
Growing Degree Days 30 (Base 50)    
Moisture  
Dew Point 72 °F    
Average Humidity 78    
Maximum Humidity 100    
Minimum Humidity 56    
Precipitation  
Precipitation T in 0.23 in 5.20 in (2012)
Month to date precipitation 4.20 5.50  
Year to date precipitation 21.44 21.06  
Snow  
Snow 0.00 in 0.00 in 0.00 in (2002)
Month to date snowfall 0.0 0.0  
Since 1 June snowfall 0.0 0.0  
Since 1 July snowfall 0.0 T  
Snow Depth 0.00 in    
Sea Level Pressure  
Sea Level Pressure 30.05 in    
Wind  
Wind Speed 5 mph (SSW)    
Max Wind Speed 18 mph    
Max Gust Speed 23 mph    
Visibility 10 miles    
Events Rain , Thunderstorm    
T = Trace of Precipitation, MM = Missing Value Source: NWS Daily Summary

Daily Weather History Graph

Daily Weather History Graph

Search for Another Location

Airport:

Trip Planner

Search our weather history database for the weather conditions in past years. The results will help you decide how hot, cold, wet, or windy it might be!

Date:

Astronomy

Jun. 26, 2013 Rise Set
Actual Time 6:26 AM EDT 8:32 PM EDT
Civil Twilight 5:58 AM EDT 9:00 PM EDT
Nautical Twilight 5:25 AM EDT 9:34 PM EDT
Astronomical Twilight 4:49 AM EDT 10:10 PM EDT
Moon 11:13 PM EDT (6/26) 10:00 AM EDT (6/26)
Length of Visible Light 15h 01m
Length of Day
14h 06m
Waning Gibbous, 85% of the Moon is Illuminated
Jun 26
Waning Gibbous
Jun 30
Last Quarter
Jul 8
New
Jul 15
First Quarter
Jul 22
Full

Hourly Weather History & Observations

Time (EDT) Temp. Heat Index Dew Point Humidity Pressure Visibility Wind Dir Wind Speed Gust Speed Precip Events Conditions
12:56 AM 72.0 °F - 71.1 °F 97% 30.08 in 10.0 mi West 3.5 mph - N/A   Mostly Cloudy
1:56 AM 72.0 °F - 71.1 °F 97% 30.06 in 10.0 mi Calm Calm - N/A   Scattered Clouds
2:56 AM 71.1 °F - 69.1 °F 93% 30.05 in 10.0 mi Calm Calm - N/A   Clear
3:56 AM 71.1 °F - 69.1 °F 93% 30.05 in 10.0 mi Calm Calm - N/A   Clear
4:56 AM 71.1 °F - 69.1 °F 93% 30.04 in 5.0 mi Calm Calm - N/A   Clear
5:56 AM 70.0 °F - 69.1 °F 97% 30.05 in 10.0 mi Calm Calm - N/A   Scattered Clouds
6:56 AM 72.0 °F - 70.0 °F 93% 30.07 in 10.0 mi Calm Calm - N/A   Scattered Clouds
7:56 AM 77.0 °F - 73.9 °F 90% 30.09 in 10.0 mi Calm Calm - N/A   Scattered Clouds
8:56 AM 80.1 °F 85.1 °F 75.0 °F 85% 30.10 in 10.0 mi SSW 5.8 mph - N/A   Scattered Clouds
9:56 AM 82.9 °F 90.2 °F 75.0 °F 77% 30.10 in 10.0 mi WSW 5.8 mph - N/A   Scattered Clouds
10:56 AM 84.9 °F 92.1 °F 73.9 °F 69% 30.09 in 10.0 mi Variable 3.5 mph - N/A   Scattered Clouds
11:56 AM 88.0 °F 95.6 °F 73.0 °F 61% 30.08 in 10.0 mi North 5.8 mph - N/A   Scattered Clouds
12:56 PM 90.0 °F 97.9 °F 73.0 °F 57% 30.08 in 10.0 mi Variable 3.5 mph - N/A   Scattered Clouds
1:56 PM 90.0 °F 96.9 °F 72.0 °F 55% 30.06 in 10.0 mi NNE 3.5 mph - N/A   Mostly Cloudy
2:10 PM 86.0 °F 93.4 °F 73.4 °F 66% 30.05 in 7.0 mi WNW 12.7 mph - 0.00 in Rain , Thunderstorm Light Thunderstorms and Rain
2:56 PM 80.1 °F 83.8 °F 72.0 °F 76% 30.04 in 10.0 mi WSW 9.2 mph - 0.00 in Rain , Thunderstorm Light Thunderstorms and Rain
3:56 PM 78.1 °F - 70.0 °F 76% 30.05 in 10.0 mi ESE 8.1 mph - 0.00 in Thunderstorm Thunderstorm
4:21 PM 78.8 °F - 73.4 °F 83% 30.03 in 10.0 mi NE 6.9 mph - N/A   Mostly Cloudy
4:56 PM 84.0 °F 91.9 °F 75.0 °F 74% 30.02 in 10.0 mi SE 6.9 mph - N/A   Mostly Cloudy
5:56 PM 84.0 °F 88.4 °F 70.0 °F 63% 30.01 in 10.0 mi SE 12.7 mph - N/A   Mostly Cloudy
6:56 PM 84.0 °F 89.6 °F 72.0 °F 67% 30.03 in 10.0 mi SSE 16.1 mph - N/A   Mostly Cloudy
7:56 PM 81.0 °F 86.2 °F 73.9 °F 79% 30.02 in 10.0 mi South 8.1 mph - N/A   Mostly Cloudy
8:56 PM 79.0 °F - 73.9 °F 84% 30.02 in 10.0 mi South 6.9 mph - N/A   Mostly Cloudy
9:56 PM 78.1 °F - 73.0 °F 84% 30.02 in 10.0 mi SSW 6.9 mph - N/A   Mostly Cloudy
10:56 PM 75.9 °F - 72.0 °F 87% 30.04 in 10.0 mi SSW 4.6 mph - N/A   Mostly Cloudy
11:56 PM 75.0 °F - 70.0 °F 84% 30.03 in 10.0 mi SSW 6.9 mph - N/A   Scattered Clouds